Wind_Speed
30 31 31 32 36 38 38 39 34 33 36 36 32 30 22 22 23 23 20 20 18 16 16 15 15 14 14 12 12 15 15 15 14 12 11 9 7 3 1 2 3 6 8 9 10 12 12 13 13
30 31 31 32 37 37 38 39 35 36 37 39 37 34 28 25 24 23 22 22 19 18 17 17 18 17 16 14 14 15 14 15 14 11 11 9 7 4 3 4 2 4 6 7 8 8 9 10 11
29 30 30 31 29 30 31 31 36 37 40 41 41 39 35 25 25 25 25 24 22 20 19 18 19 19 18 16 15 15 15 14 13 12 12 10 8 5 6 7 1 3 4 5 6 7 8 9 11
25 26 27 28 25 25 26 29 26 37 41 44 44 43 40 31 27 28 27 27 24 23 21 19 21 21 21 19 18 17 16 16 15 14 13 12 10 8 8 8 3 2 2 3 4 6 8 8 9
27 26 25 23 23 26 26 28 24 29 40 45 47 46 43 40 31 31 29 30 27 26 24 23 23 23 23 22 21 19 19 18 16 15 14 13 12 11 10 8 5 3 1 1 3 5 7 7 8
26 25 24 22 23 27 28 30 29 29 33 43 49 49 47 45 38 33 32 33 31 28 27 26 25 25 24 24 22 21 20 19 18 17 16 15 14 13 11 9 7 5 3 2 1 4 5 5 6
28 27 26 25 25 28 29 31 29 30 35 39 48 52 50 48 44 37 35 35 35 31 30 29 28 27 26 25 24 23 22 21 20 19 18 18 16 14 12 11 9 6 5 3 1 1 2 3 5
32 33 31 28 28 30 31 33 34 33 36 38 44 53 53 49 49 43 38 36 37 36 33 32 31 29 28 27 26 24 24 23 22 21 21 20 17 14 13 12 11 8 6 5 4 1 1 1 4
36 37 34 32 33 35 36 34 35 35 37 38 38 45 54 53 52 51 44 39 38 39 37 33 33 32 30 29 27 26 26 25 24 22 22 20 17 15 14 13 12 10 9 7 6 3 2 2 3
41 42 38 36 39 37 36 36 35 35 36 38 39 41 54 56 54 56 50 43 41 42 41 38 35 35 33 30 29 29 28 26 24 23 22 21 19 16 15 16 14 12 11 9 7 6 4 3 3
46 46 43 41 40 40 40 38 37 37 37 38 40 43 48 61 58 58 57 48 45 44 45 43 40 38 36 34 32 31 29 27 26 24 22 22 20 19 17 17 16 14 12 11 9 7 6 4 5
51 50 48 44 44 44 43 42 40 38 38 40 41 42 49 58 63 61 61 54 49 45 46 47 44 40 38 35 34 33 31 29 26 25 24 22 20 20 19 19 17 16 14 13 11 9 8 7 7
55 52 52 51 51 49 47 44 43 42 43 43 43 44 46 55 66 65 63 62 56 52 50 49 47 43 40 38 35 33 32 30 28 27 25 23 21 21 21 20 19 17 17 15 13 11 10 9 9
60 59 57 57 55 54 53 50 49 43 42 44 45 47 46 51 63 70 64 65 61 55 50 54 49 47 42 39 37 34 33 32 30 28 26 24 22 22 22 22 20 19 18 18 15 13 12 11 11
65 65 64 61 61 61 56 56 52 46 45 47 48 48 50 49 57 69 67 65 67 61 55 52 51 49 47 43 41 38 36 34 31 30 28 25 23 23 23 23 22 21 20 20 18 16 15 13 13
65 67 67 65 63 62 62 56 54 48 49 49 51 51 50 52 55 65 74 69 68 67 62 55 54 52 50 47 45 41 38 36 33 31 29 27 25 25 25 24 23 22 22 22 20 18 17 16 15
61 61 64 65 64 62 62 56 56 51 53 52 51 51 51 53 49 57 72 76 65 67 66 62 56 55 53 50 48 44 40 38 36 33 31 29 28 28 27 26 25 24 24 24 23 21 20 18 17
57 60 59 58 58 57 57 55 57 56 57 54 52 52 52 52 51 53 68 79 72 73 71 67 60 58 55 53 50 47 43 40 38 35 33 31 30 30 29 29 27 27 26 25 24 23 22 21 19
54 55 55 56 56 59 57 57 58 55 57 55 55 54 53 49 48 50 64 74 88 73 75 74 65 60 59 55 52 48 45 41 38 37 36 34 32 31 31 30 29 28 28 26 26 25 24 23 22
57 57 54 56 56 58 60 55 54 54 57 56 55 54 54 51 50 50 57 72 87 82 49 76 69 63 63 57 54 50 47 44 43 41 39 37 33 32 32 31 30 30 29 28 28 28 27 26 25
55 54 53 54 55 56 58 58 55 52 55 54 55 54 52 51 50 48 53 69 79 87 79 57 69 65 65 62 56 53 50 48 46 43 41 38 37 35 33 32 32 31 30 30 30 30 30 29 29
58 54 53 53 54 58 58 60 54 52 54 54 54 54 51 49 47 44 50 65 73 83 95 56 81 70 66 63 58 54 50 48 46 44 43 42 40 36 35 35 33 32 32 32 32 32 32 33 32
52 53 54 52 54 53 61 62 53 52 52 53 50 50 48 42 39 41 45 57 67 66 74 89 60 64 74 65 60 56 53 51 50 48 46 43 42 40 38 36 35 35 35 34 34 34 35 35 36
45 46 41 40 51 57 59 60 53 50 48 45 43 43 42 40 37 41 47 55 59 62 73 82 65 80 69 67 62 59 55 52 51 49 46 45 44 42 40 39 38 37 37 36 36 37 37 38 37
37 38 42 44 52 65 58 62 53 46 40 42 40 41 42 39 38 43 50 56 57 61 71 70 83 55 72 66 62 59 57 56 53 51 50 48 47 44 44 44 41 39 38 39 39 40 39 39 40
40 43 41 49 58 49 53 61 57 48 37 31 37 45 46 44 39 45 48 50 56 60 67 69 65 68 64 64 62 59 59 58 54 52 51 49 49 47 47 45 42 40 41 42 41 41 41 41 42
36 45 46 51 44 41 45 46 43 38 31 36 38 41 43 41 39 44 46 50 54 60 68 65 68 77 63 63 62 60 60 64 55 53 52 50 50 47 48 46 44 44 44 44 43 43 42 43 44
37 34 39 45 49 42 42 44 40 30 30 31 34 36 43 46 48 50 49 48 52 57 65 67 72 83 81 71 64 63 61 60 60 54 53 51 51 48 48 49 47 47 44 47 44 46 45 44 46
34 33 40 37 42 42 37 36 29 28 33 29 29 35 36 42 46 50 52 47 49 53 57 66 65 66 63 66 67 64 63 62 60 61 55 52 51 52 50 47 45 46 48 48 45 48 49 50 50
31 30 30 35 35 44 38 31 14 25 28 31 32 31 31 36 41 48 46 46 50 54 52 66 66 70 66 69 60 64 63 62 61 62 60 53 52 55 58 52 47 45 50 46 48 51 52 50 50
Wind_Direction
272 272 270 265 259 261 261 257 251 239 239 240 240 243 242 238 237 237 237 231 229 227 226 221 205 200 192 196 192 188 187 189 182 181 183 189 195 196 241 338 39 57 54 50 44 37 30 30 33
269 267 266 265 263 265 266 264 256 242 240 239 241 242 244 237 239 235 238 232 230 228 224 216 208 197 195 191 193 195 193 193 191 193 192 198 207 220 260 296 37 63 61 44 40 38 35 30 32
263 261 259 261 261 267 268 265 254 245 240 239 238 238 241 238 238 235 232 231 229 227 220 214 208 198 198 192 194 198 199 202 205 207 204 210 222 235 264 287 270 81 63 49 38 33 31 32 32
255 255 257 260 262 258 263 266 254 246 240 237 237 236 236 238 236 234 229 232 229 229 221 211 208 203 200 198 201 207 213 217 216 218 218 223 233 248 260 276 229 148 80 54 48 39 35 34 37
252 253 256 261 261 262 258 256 252 244 240 238 236 234 233 235 234 234 231 230 227 228 224 209 208 208 206 204 205 212 219 222 221 226 231 237 245 253 257 257 223 194 167 79 49 39 41 39 41
248 251 252 257 258 261 262 256 251 246 242 236 237 235 232 232 235 236 231 230 225 224 224 214 209 210 213 210 209 214 220 227 228 232 239 244 250 255 248 240 227 216 212 218 48 35 41 44 39
244 244 249 254 259 260 260 259 252 247 248 239 234 235 233 229 233 233 234 230 229 221 221 219 213 211 215 216 214 216 223 227 233 237 244 250 253 252 242 229 227 226 223 224 223 55 43 43 34
251 253 253 257 258 255 255 256 254 244 240 246 239 233 233 231 230 230 231 233 233 224 220 220 218 216 214 218 219 216 224 227 233 242 248 249 247 250 246 231 225 228 228 226 226 229 6 19 25
253 257 259 259 259 254 253 253 257 254 245 244 244 241 232 229 229 231 228 230 235 232 223 220 219 220 218 218 222 221 223 230 236 244 245 243 244 248 246 234 229 230 230 231 233 241 270 303 353
258 259 259 257 253 254 253 252 252 252 251 251 249 245 233 229 227 229 229 227 228 234 227 221 220 220 221 220 222 225 225 233 237 240 242 241 244 246 241 235 233 234 233 237 237 245 259 277 314
257 261 256 254 252 251 249 249 248 250 250 248 246 244 242 228 226 226 230 225 225 228 230 224 221 220 221 221 222 226 227 232 236 238 240 241 241 243 239 233 235 239 238 238 241 243 250 260 284
260 259 257 257 255 251 248 248 248 246 248 247 246 243 242 235 226 225 226 227 225 224 231 227 223 221 223 223 223 226 229 231 234 236 237 237 239 241 237 233 234 241 243 241 241 243 247 253 268
257 261 260 258 256 255 251 249 248 243 244 245 244 243 242 239 229 225 224 226 222 224 222 230 225 222 222 224 224 225 228 229 232 233 233 234 238 240 236 231 234 242 246 244 242 241 245 254 265
261 258 256 258 258 257 257 251 247 244 250 245 244 243 241 241 235 227 224 226 224 223 222 222 230 222 222 225 225 225 226 227 228 232 231 232 236 240 235 232 235 241 245 244 243 241 246 253 263
262 261 258 256 257 258 257 253 250 250 246 242 241 241 242 241 237 231 225 225 226 225 225 223 229 227 222 224 225 224 225 227 227 228 230 233 236 236 234 235 238 241 243 243 244 242 246 253 265
260 259 259 259 257 257 257 250 249 253 249 244 242 240 241 242 239 233 223 224 220 224 225 222 224 232 222 222 225 224 224 226 227 227 229 233 234 235 236 236 239 243 243 243 244 245 248 251 260
259 261 259 258 257 254 254 252 249 250 248 246 245 244 242 243 244 237 230 222 220 222 224 225 222 227 226 221 224 226 223 224 226 226 229 232 235 236 237 238 240 243 243 244 244 245 248 251 257
258 261 261 260 261 256 252 247 245 246 247 246 247 246 243 242 244 239 233 223 222 220 224 225 221 221 228 222 223 225 224 224 225 226 228 231 233 236 238 239 241 242 242 244 245 247 250 255 259
258 255 253 254 255 253 248 243 241 245 247 247 247 249 247 247 247 241 233 227 226 221 223 224 223 223 224 226 224 224 225 225 224 227 228 229 231 235 239 240 240 241 241 242 245 247 252 256 260
252 251 250 252 253 252 249 245 240 242 248 248 249 249 249 245 245 244 238 229 223 225 223 222 220 221 219 227 224 222 223 225 224 225 227 228 231 235 238 240 239 240 241 242 244 248 253 257 262
248 249 249 253 254 254 254 246 243 242 247 249 250 250 249 246 246 245 242 232 226 224 219 217 217 221 220 222 227 224 222 225 225 224 228 230 231 233 235 238 240 241 243 244 247 251 255 261 264
247 246 246 248 249 252 252 249 243 242 243 248 249 251 249 247 248 247 241 232 227 223 221 211 217 218 218 219 226 224 222 225 227 227 227 228 231 232 235 238 240 241 244 246 250 255 259 263 268
245 244 245 243 247 249 253 253 243 242 244 245 247 251 252 253 255 243 236 236 224 223 222 228 214 216 214 217 222 223 222 223 226 226 226 228 233 234 236 239 241 243 245 248 252 256 259 264 268
239 239 234 231 240 240 246 252 238 242 243 242 245 246 250 248 243 236 223 225 222 218 219 214 219 215 213 215 218 221 223 224 227 230 229 229 233 236 238 240 242 245 247 251 254 257 260 263 267
219 218 228 232 236 245 244 248 244 247 245 240 238 242 240 237 234 228 222 222 223 219 217 214 219 214 212 211 215 219 221 224 225 227 228 228 232 234 237 239 241 245 250 253 255 258 262 266 269
221 217 220 231 234 245 246 250 250 249 245 243 233 232 233 232 231 226 225 223 222 216 217 219 223 222 204 208 213 217 220 224 225 228 229 230 233 235 240 243 244 247 250 253 257 260 265 268 270
218 215 221 235 234 235 247 251 252 245 241 234 233 229 229 223 222 229 229 227 223 218 216 218 213 221 217 206 211 214 219 224 224 228 230 232 235 237 241 244 246 248 252 256 259 261 265 268 272
220 217 214 217 227 238 244 247 244 236 239 234 232 224 224 225 230 230 229 227 223 221 212 216 214 221 232 227 211 212 218 224 225 226 229 231 234 236 242 243 245 248 252 257 261 265 265 269 273
215 216 218 220 228 236 241 248 247 227 224 217 222 225 229 229 231 228 229 230 222 220 218 223 212 219 218 223 212 212 215 222 225 227 227 231 234 236 241 244 249 250 252 256 257 264 269 269 272
216 225 226 228 232 230 230 233 235 222 223 209 217 219 231 235 230 232 234 231 225 222 219 224 220 215 219 230 226 213 214 219 223 229 228 230 234 236 238 238 251 254 254 257 257 263 266 270 272
Height
5827 5828 5829 5831 5834 5831 5831 5833 5838 5843 5846 5847 5850 5851 5853 5853 5855 5857 5857 5857 5858 5859 5859 5860 5861 5863 5864 5866 5868 5869 5870 5871 5871 5872 5872 5873 5873 5873 5873 5873 5872 5871 5870 5869 5867 5866 5865 5863 5861
5820 5821 5822 5823 5824 5824 5826 5828 5833 5838 5838 5841 5845 5847 5849 5850 5850 5852 5853 5854 5855 5856 5856 5857 5859 5861 5862 5864 5867 5868 5869 5870 5871 5871 5872 5872 5873 5873 5872 5872 5871 5870 5869 5868 5867 5866 5865 5864 5862
5813 5814 5815 5815 5816 5818 5820 5820 5825 5830 5832 5834 5837 5841 5843 5848 5847 5848 5849 5851 5852 5853 5853 5854 5856 5858 5860 5862 5865 5867 5868 5869 5870 5871 5871 5871 5872 5872 5872 5871 5870 5869 5869 5868 5867 5866 5865 5864 5863
5806 5807 5808 5809 5811 5812 5813 5813 5817 5820 5822 5825 5829 5833 5838 5842 5843 5843 5845 5846 5849 5850 5851 5852 5853 5855 5858 5860 5862 5865 5866 5867 5868 5869 5870 5870 5870 5870 5870 5869 5869 5868 5868 5867 5866 5865 5865 5864 5863
5800 5801 5802 5804 5804 5804 5805 5805 5809 5811 5813 5817 5820 5825 5831 5835 5838 5838 5840 5841 5844 5846 5848 5848 5850 5852 5855 5857 5859 5862 5864 5865 5866 5867 5868 5868 5868 5869 5869 5868 5868 5867 5867 5866 5865 5865 5864 5863 5863
5793 5794 5796 5797 5797 5797 5798 5798 5801 5804 5805 5808 5811 5816 5822 5828 5832 5834 5835 5836 5838 5841 5844 5845 5847 5849 5852 5854 5855 5858 5860 5862 5864 5865 5866 5866 5866 5866 5866 5867 5866 5866 5866 5865 5864 5864 5863 5862 5862
5785 5786 5788 5789 5789 5790 5790 5790 5794 5797 5798 5799 5802 5806 5814 5820 5824 5828 5831 5831 5833 5836 5839 5841 5843 5845 5847 5850 5852 5854 5857 5858 5860 5861 5863 5863 5864 5864 5864 5864 5864 5864 5864 5864 5863 5862 5862 5861 5860
5778 5779 5780 5781 5781 5782 5781 5781 5784 5788 5789 5789 5792 5794 5803 5811 5815 5819 5824 5828 5829 5831 5833 5836 5839 5841 5842 5845 5848 5850 5852 5854 5856 5858 5859 5860 5861 5861 5862 5862 5862 5862 5862 5862 5862 5861 5861 5861 5859
5768 5769 5771 5772 5772 5772 5771 5773 5775 5779 5780 5781 5784 5786 5792 5799 5806 5810 5815 5821 5825 5827 5828 5831 5833 5836 5839 5841 5844 5846 5848 5850 5852 5853 5855 5856 5857 5858 5859 5859 5859 5860 5860 5860 5860 5860 5859 5859 5858
5759 5759 5761 5762 5761 5762 5763 5764 5766 5768 5771 5774 5775 5777 5781 5788 5795 5801 5807 5813 5818 5821 5822 5824 5827 5830 5833 5836 5838 5841 5843 5846 5847 5849 5850 5852 5853 5854 5855 5856 5857 5857 5857 5858 5858 5857 5857 5857 5856
5748 5749 5750 5751 5751 5751 5752 5754 5756 5758 5761 5763 5767 5769 5770 5775 5783 5791 5797 5804 5808 5813 5816 5818 5820 5823 5827 5829 5832 5835 5839 5841 5843 5844 5846 5848 5849 5851 5851 5852 5854 5855 5855 5855 5855 5854 5854 5854 5853
5736 5738 5738 5742 5741 5740 5741 5743 5746 5748 5751 5753 5756 5759 5761 5764 5771 5779 5787 5795 5799 5805 5809 5812 5814 5817 5821 5824 5826 5830 5833 5835 5838 5840 5841 5843 5845 5846 5847 5848 5850 5851 5852 5852 5852 5852 5852 5851 5851
5723 5727 5728 5728 5728 5729 5731 5734 5734 5736 5738 5741 5745 5748 5751 5754 5759 5766 5775 5779 5785 5792 5799 5803 5807 5811 5814 5817 5820 5823 5827 5830 5832 5835 5837 5838 5840 5842 5843 5844 5846 5847 5848 5848 5849 5849 5849 5848 5848
5711 5712 5712 5713 5717 5716 5718 5721 5722 5727 5728 5730 5734 5737 5740 5744 5749 5755 5762 5770 5776 5781 5788 5794 5799 5803 5807 5810 5814 5817 5821 5823 5826 5829 5832 5833 5835 5838 5839 5840 5841 5843 5844 5845 5845 5845 5845 5845 5845
5694 5696 5697 5700 5701 5703 5703 5709 5712 5715 5716 5717 5720 5724 5728 5732 5735 5744 5753 5760 5765 5772 5777 5784 5790 5796 5799 5802 5806 5809 5814 5817 5820 5823 5826 5828 5830 5833 5834 5836 5837 5838 5839 5840 5841 5841 5841 5841 5841
5675 5678 5679 5685 5687 5688 5688 5700 5701 5702 5703 5706 5707 5711 5716 5720 5726 5731 5740 5746 5752 5759 5767 5774 5781 5787 5790 5794 5799 5802 5807 5811 5814 5818 5820 5823 5825 5827 5829 5830 5832 5833 5835 5836 5836 5837 5837 5837 5836
5658 5662 5663 5664 5669 5671 5673 5686 5685 5688 5690 5692 5695 5700 5704 5707 5715 5720 5725 5735 5738 5747 5756 5763 5771 5776 5782 5786 5791 5796 5799 5804 5808 5811 5814 5817 5819 5821 5823 5825 5826 5828 5829 5831 5831 5832 5832 5832 5831
5641 5643 5647 5651 5652 5654 5658 5667 5666 5672 5676 5681 5683 5688 5692 5695 5702 5708 5712 5722 5728 5735 5743 5751 5759 5767 5773 5778 5782 5788 5792 5797 5801 5805 5808 5810 5813 5815 5817 5819 5820 5822 5823 5825 5826 5827 5827 5827 5826
5625 5626 5630 5633 5634 5635 5641 5646 5652 5656 5662 5668 5671 5675 5680 5685 5687 5692 5697 5705 5712 5721 5731 5738 5750 5758 5764 5771 5775 5781 5785 5789 5794 5798 5801 5803 5806 5809 5811 5812 5814 5815 5817 5819 5820 5821 5821 5821 5820
5606 5610 5618 5617 5618 5620 5621 5631 5639 5643 5646 5653 5658 5661 5666 5671 5672 5677 5684 5691 5700 5712 5708 5728 5737 5747 5754 5761 5766 5771 5776 5781 5785 5789 5793 5796 5799 5802 5804 5806 5807 5808 5810 5812 5813 5814 5814 5814 5814
5590 5595 5603 5605 5604 5603 5606 5613 5625 5632 5633 5639 5644 5648 5653 5658 5660 5663 5669 5678 5686 5697 5709 5710 5726 5737 5743 5749 5756 5762 5767 5773 5777 5781 5786 5790 5792 5794 5797 5799 5801 5802 5803 5804 5806 5807 5807 5807 5807
5571 5582 5584 5587 5587 5588 5591 5598 5611 5618 5620 5625 5631 5634 5640 5644 5647 5649 5656 5661 5673 5683 5698 5698 5710 5723 5731 5738 5746 5753 5760 5765 5770 5774 5777 5781 5784 5787 5790 5792 5794 5795 5796 5797 5798 5799 5799 5799 5799
5561 5563 5568 5573 5575 5575 5578 5581 5601 5605 5608 5613 5618 5623 5628 5632 5635 5638 5646 5653 5662 5669 5679 5689 5696 5705 5717 5725 5734 5742 5749 5754 5759 5764 5768 5773 5776 5779 5782 5784 5786 5788 5789 5790 5790 5791 5791 5791 5791
5547 5549 5555 5558 5561 5555 5571 5568 5584 5592 5599 5604 5609 5613 5616 5620 5623 5627 5635 5641 5647 5656 5663 5676 5684 5694 5703 5712 5721 5731 5738 5744 5751 5757 5761 5765 5768 5771 5774 5776 5778 5780 5781 5782 5783 5783 5783 5783 5783
5528 5536 5540 5542 5541 5542 5558 5554 5574 5580 5587 5592 5597 5600 5603 5608 5612 5617 5623 5630 5636 5643 5651 5662 5670 5679 5688 5698 5710 5720 5728 5733 5740 5746 5751 5755 5759 5762 5764 5766 5770 5772 5773 5774 5774 5775 5775 5775 5774
5515 5522 5526 5528 5532 5538 5547 5544 5557 5567 5577 5581 5583 5585 5591 5598 5602 5608 5614 5621 5627 5635 5643 5651 5658 5671 5672 5685 5698 5708 5715 5723 5730 5735 5741 5745 5749 5752 5756 5760 5762 5764 5764 5765 5766 5766 5766 5766 5765
5507 5507 5524 5521 5525 5529 5535 5539 5546 5556 5564 5566 5571 5575 5581 5587 5592 5599 5606 5611 5618 5623 5632 5640 5651 5661 5665 5673 5685 5696 5704 5712 5720 5726 5731 5736 5740 5743 5747 5750 5753 5754 5755 5756 5757 5757 5757 5756 5755
5494 5505 5507 5510 5515 5520 5527 5528 5535 5547 5551 5557 5562 5567 5571 5575 5581 5586 5592 5601 5609 5616 5624 5630 5640 5652 5660 5669 5673 5683 5693 5702 5708 5715 5721 5726 5730 5734 5737 5739 5741 5744 5746 5747 5747 5748 5747 5746 5745
5489 5492 5497 5504 5509 5514 5519 5522 5529 5537 5541 5547 5553 5557 5563 5568 5572 5576 5583 5591 5598 5606 5614 5620 5627 5638 5645 5657 5664 5673 5681 5690 5698 5704 5710 5716 5720 5724 5726 5729 5731 5734 5736 5737 5738 5738 5737 5736 5735
5483 5489 5493 5496 5503 5505 5510 5518 5524 5527 5533 5540 5544 5548 5553 5559 5564 5570 5575 5582 5587 5597 5602 5607 5616 5628 5638 5651 5660 5664 5671 5681 5689 5695 5700 5705 5709 5713 5715 5719 5723 5724 5726 5726 5727 5728 5727 5725 5723